Location: Oshawa
(43.9000°N, 78.8670°W)
Time: 23:38:20
(UTC-04:00)

Courier 1B - All Passes

Search period start: 28 August 2016 00:00
Search period end: 07 September 2016 00:00
Orbit: 962 x 1209 km, 28.3° (Epoch: 27 August)

Date Brightness Start Highest point End Pass type
(mag) Time Alt. Az. Time Alt. Az. Time Alt. Az.
28 Aug - 03:23:15 10° SSW 03:27:14 17° S 03:31:10 10° SE visible
28 Aug - 05:15:43 10° SW 05:20:09 19° S 05:24:36 10° SE visible
28 Aug - 07:10:09 10° SW 07:13:00 13° SSW 07:15:54 10° S daylight
29 Aug - 02:30:16 10° SSW 02:33:48 15° SSE 02:37:17 10° SE visible
29 Aug - 04:22:12 10° SW 04:26:41 20° S 04:31:10 10° SE visible
29 Aug - 06:16:02 10° SW 06:19:35 15° SSW 06:23:10 10° SSE daylight
30 Aug - 01:37:33 10° S 01:40:22 13° SSE 01:43:08 10° SE night (unlit)
30 Aug - 03:28:45 10° SW 03:33:15 19° S 03:37:40 10° SE visible
30 Aug - 05:22:08 10° SW 05:26:09 17° S 05:30:11 10° SSE visible
31 Aug - 00:45:36 10° S 00:46:55 11° SSE 00:48:13 10° SSE night (unlit)
31 Aug - 02:35:23 10° SW 02:39:47 19° S 02:44:06 10° SE visible
31 Aug - 04:28:21 10° SW 04:32:43 19° S 04:37:02 10° SE visible
31 Aug - 06:23:59 10° SW 06:25:31 11° SSW 06:27:04 10° S daylight
01 Sep - 01:42:06 10° SSW 01:46:19 17° S 01:50:25 10° SE night (unlit)
01 Sep - 03:34:41 10° SW 03:39:16 20° S 03:43:46 10° SE visible
01 Sep - 05:29:10 10° SW 05:32:07 13° SSW 05:35:04 10° S visible
02 Sep - 00:49:00 10° SSW 00:52:50 16° SSE 00:56:36 10° SE night (unlit)
02 Sep - 02:41:04 10° SW 02:45:48 20° S 02:50:25 10° SE visible
02 Sep - 04:34:58 10° SW 04:38:42 16° SSW 04:42:24 10° SSE visible
02 Sep - 23:56:09 10° S 23:59:22 13° SSE 00:02:30 10° SE night (unlit)
03 Sep - 01:47:31 10° SW 01:52:19 20° S 01:56:58 10° SE night (unlit)
03 Sep - 03:40:59 10° SW 03:45:16 18° S 03:49:29 10° SSE visible
03 Sep - 23:03:54 10° S 23:05:52 11° SSE 23:07:49 10° SE night (unlit)
04 Sep - 00:54:03 10° SW 00:58:49 19° S 01:03:26 10° SE night (unlit)
04 Sep - 02:47:07 10° SW 02:51:49 20° S 02:56:22 10° SE night (unlit)
04 Sep - 04:42:32 10° SW 04:44:38 12° SSW 04:46:43 10° S visible
05 Sep - 00:00:41 10° SSW 00:05:18 18° SSE 00:09:46 10° SE night (unlit)
05 Sep - 01:53:21 10° SW 01:58:20 21° S 02:03:08 10° SE night (unlit)
05 Sep - 03:47:49 10° SW 03:51:13 14° SSW 03:54:34 10° SSE visible
05 Sep - 23:07:30 10° SSW 23:11:46 16° SSE 23:15:55 10° SE night (unlit)
06 Sep - 00:59:39 10° SW 01:04:49 22° S 01:09:47 10° SE night (unlit)
06 Sep - 02:53:34 10° SW 02:57:46 17° SSW 03:01:52 10° SSE night (unlit)
06 Sep - 22:14:35 10° S 22:18:14 14° SSE 22:21:48 10° SE visible
